This is the latest recevied weather packets stored in our database for station/object BM1CKC-10. If no packets are shown the sender has not sent any weather packets the latest 10 day(s).
| Time | Temp. | Humidity | Pressure | Rain* | Wind** | Luminosity | Snow |
|---|---|---|---|---|---|---|---|
| 1777740598 | 24.44° C | 54% | 1003.5 hPa | - | - | - | - |
| 1777739399 | 24.44° C | 58% | 1003.9 hPa | - | - | - | - |
| 1777738198 | 23.89° C | 54% | 1003.9 hPa | - | - | - | - |
| 1777736998 | 24.44° C | 53% | 1004.1 hPa | - | - | - | - |
| 1777735798 | 24.44° C | 50% | 1004.2 hPa | - | - | - | - |
| 1777734599 | 25.56° C | 57% | 1004.5 hPa | - | - | - | - |
| 1777733399 | 25.56° C | 55% | 1004.6 hPa | - | - | - | - |
| 1777732198 | 27.78° C | 54% | 1004.6 hPa | - | - | - | - |
| 1777730998 | 28.33° C | 60% | 1004.6 hPa | - | - | - | - |
| 1777729798 | 28.33° C | 60% | 1004.6 hPa | - | - | - | - |
| 1777728599 | 28.33° C | 60% | 1004.8 hPa | - | - | - | - |
| 1777727399 | 28.33° C | 60% | 1004.6 hPa | - | - | - | - |
| 1777724999 | 28.89° C | 59% | 1004.4 hPa | - | - | - | - |
| 1777723799 | 28.33° C | 60% | 1004.4 hPa | - | - | - | - |
| 1777722599 | 27.78° C | 61% | 1004.3 hPa | - | - | - | - |
| 1777721398 | 28.33° C | 61% | 1004.1 hPa | - | - | - | - |
| 1777720198 | 28.33° C | 61% | 1004.1 hPa | - | - | - | - |
| 1777718998 | 28.33° C | 60% | 1003.8 hPa | - | - | - | - |
| 1777717798 | 28.33° C | 60% | 1003.8 hPa | - | - | - | - |
| 1777716598 | 28.33° C | 60% | 1003.6 hPa | - | - | - | - |
| 1777715398 | 28.89° C | 59% | 1003.6 hPa | - | - | - | - |
| 1777714198 | 28.89° C | 59% | 1003.6 hPa | - | - | - | - |
| 1777712998 | 28.33° C | 61% | 1003.5 hPa | - | - | - | - |
| 1777711798 | 28.33° C | 60% | 1003.4 hPa | - | - | - | - |
| 1777710598 | 28.33° C | 59% | 1003.5 hPa | - | - | - | - |
* Rain since midnight (hover to see other rain measurements)
** Current wind speed in m/s (hover to see current wind gust speed)